Location: Unspecified
(41.1637°N, 24.2901°E)
Time: 15:20:59
(UTC+01:00)

ISS - Pass Details

Date: 22 January 2021
Orbit: 418 x 421 km, 51.6° (Epoch: 27 January)

Event Time Altitude Azimuth Distance (km) Brightness Sun altitude
Rises 18:43:06 0° 278° (W) 2,368 1.3 -25.4°
Reaches altitude 10° 18:45:40 10° 298° (WNW) 1,506 -0.2 -25.9°
Enters shadow 18:47:01 16° 320° (NW) 1,194 -1.1 -26.1°
